Stündliche Wetter Abakumovo

Heute, 17 Juni, Donnerstag

Zeit Temperatur Niederschläge Wind Luftdruck Luftfeuchtigkeit
00:00 +11°C° 0 mm 1 m/S 748 mmHg 69%
01:00 +10°C° 0 mm 1 m/S 749 mmHg 72%
02:00 +10°C° 0 mm 1 m/S 749 mmHg 75%
03:00 +11°C° 0 mm 1 m/S 750 mmHg 72%
04:00 +12°C° 0 mm 1 m/S 750 mmHg 69%
05:00 +13°C° 0 mm 1 m/S 750 mmHg 66%
06:00 +15°C° 0 mm 1 m/S 750 mmHg 58%
07:00 +17°C° 0 mm 2 m/S 750 mmHg 50%
08:00 +20°C° 0 mm 2 m/S 751 mmHg 43%
09:00 +21°C° 0 mm 3 m/S 751 mmHg 40%
10:00 +22°C° 0 mm 3 m/S 751 mmHg 38%
11:00 +23°C° 0 mm 4 m/S 751 mmHg 35%
12:00 +25°C° 0 mm 4 m/S 751 mmHg 35%
13:00 +25°C° 0 mm 4 m/S 751 mmHg 34%
14:00 +26°C° 0 mm 4 m/S 751 mmHg 34%
15:00 +25°C° 0 mm 3 m/S 751 mmHg 37%
16:00 +25°C° 0 mm 3 m/S 751 mmHg 39%
17:00 +25°C° 0 mm 3 m/S 751 mmHg 42%
18:00 +23°C° 0 mm 2 m/S 751 mmHg 51%
19:00 +20°C° 0 mm 2 m/S 751 mmHg 60%
20:00 +19°C° 0 mm 1 m/S 751 mmHg 70%
21:00 +16°C° 0 mm 1 m/S 752 mmHg 72%
22:00 +15°C° 0 mm 1 m/S 752 mmHg 74%
23:00 +13°C° 0 mm 0 m/S 752 mmHg 76%

Morgen, 18 Juni, Freitag

Zeit Temperatur Niederschläge Wind Luftdruck Luftfeuchtigkeit
00:00 +13°C° 0 mm 0 m/S 752 mmHg 77%
01:00 +12°C° 0 mm 0 m/S 752 mmHg 77%
02:00 +12°C° 0 mm 0 m/S 753 mmHg 78%
03:00 +14°C° 0 mm 1 m/S 753 mmHg 76%
04:00 +15°C° 0 mm 1 m/S 753 mmHg 74%
05:00 +16°C° 0 mm 1 m/S 753 mmHg 72%
06:00 +19°C° 0 mm 1 m/S 753 mmHg 65%
07:00 +20°C° 0 mm 2 m/S 753 mmHg 57%
08:00 +23°C° 0 mm 2 m/S 753 mmHg 49%
09:00 +25°C° 0 mm 2 m/S 752 mmHg 46%
10:00 +26°C° 0 mm 3 m/S 752 mmHg 42%
11:00 +27°C° 0 mm 3 m/S 752 mmHg 38%
12:00 +28°C° 0 mm 3 m/S 752 mmHg 37%
13:00 +28°C° 0 mm 3 m/S 751 mmHg 35%
14:00 +29°C° 0 mm 4 m/S 751 mmHg 34%
15:00 +29°C° 0 mm 3 m/S 751 mmHg 36%
16:00 +29°C° 0 mm 3 m/S 750 mmHg 39%
17:00 +28°C° 0 mm 3 m/S 750 mmHg 41%
18:00 +26°C° 0 mm 2 m/S 750 mmHg 51%
19:00 +24°C° 0 mm 2 m/S 750 mmHg 61%
20:00 +20°C° 0 mm 2 m/S 750 mmHg 71%
21:00 +19°C° 0 mm 2 m/S 750 mmHg 73%
22:00 +18°C° 0 mm 2 m/S 750 mmHg 76%
23:00 +17°C° 0 mm 2 m/S 751 mmHg 78%

übermorgen, 19 Juni, Samstag

Zeit Temperatur Niederschläge Wind Luftdruck Luftfeuchtigkeit
00:00 +17°C° 0 mm 2 m/S 751 mmHg 81%
01:00 +16°C° 0 mm 2 m/S 751 mmHg 83%
02:00 +16°C° 0 mm 2 m/S 751 mmHg 85%
03:00 +17°C° 0 mm 2 m/S 751 mmHg 83%
04:00 +18°C° 0 mm 2 m/S 751 mmHg 80%
05:00 +19°C° 0 mm 2 m/S 751 mmHg 78%
06:00 +21°C° 0 mm 2 m/S 751 mmHg 70%
07:00 +24°C° 0 mm 3 m/S 751 mmHg 62%
08:00 +26°C° 0 mm 3 m/S 751 mmHg 54%
09:00 +27°C° 0 mm 3 m/S 751 mmHg 50%
10:00 +28°C° 0 mm 3 m/S 751 mmHg 46%
11:00 +29°C° 0 mm 4 m/S 751 mmHg 41%
12:00 +30°C° 0 mm 4 m/S 750 mmHg 39%
13:00 +30°C° 0 mm 4 m/S 750 mmHg 36%
14:00 +32°C° 0 mm 4 m/S 750 mmHg 34%
15:00 +30°C° 0 mm 3 m/S 749 mmHg 36%
16:00 +30°C° 0 mm 3 m/S 749 mmHg 38%
17:00 +29°C° 0 mm 3 m/S 749 mmHg 40%
18:00 +27°C° 0 mm 2 m/S 749 mmHg 50%
19:00 +25°C° 0 mm 2 m/S 749 mmHg 59%
20:00 +22°C° 0 mm 1 m/S 749 mmHg 69%
21:00 +21°C° 0 mm 1 m/S 749 mmHg 71%
22:00 +20°C° 0 mm 1 m/S 749 mmHg 73%
23:00 +19°C° 0 mm 1 m/S 749 mmHg 75%

20 Juni, Sonntag

Zeit Temperatur Niederschläge Wind Luftdruck Luftfeuchtigkeit
00:00 +19°C° 0 mm 1 m/S 750 mmHg 78%
01:00 +18°C° 0 mm 1 m/S 750 mmHg 80%
02:00 +18°C° 0 mm 1 m/S 750 mmHg 82%
03:00 +19°C° 0 mm 1 m/S 750 mmHg 80%
04:00 +19°C° 0 mm 1 m/S 750 mmHg 78%
05:00 +20°C° 0 mm 1 m/S 750 mmHg 76%
06:00 +21°C° 0 mm 2 m/S 750 mmHg 69%
07:00 +24°C° 0 mm 2 m/S 750 mmHg 62%
08:00 +26°C° 0 mm 2 m/S 749 mmHg 55%
09:00 +28°C° 0 mm 3 m/S 749 mmHg 51%
10:00 +29°C° 0 mm 3 m/S 749 mmHg 47%
11:00 +30°C° 0 mm 3 m/S 749 mmHg 42%
12:00 +30°C° 0 mm 3 m/S 749 mmHg 39%
13:00 +31°C° 0 mm 3 m/S 749 mmHg 36%
14:00 +31°C° 0 mm 3 m/S 748 mmHg 33%
15:00 +31°C° 0 mm 3 m/S 748 mmHg 36%
16:00 +30°C° 0 mm 3 m/S 748 mmHg 38%
17:00 +30°C° 0 mm 2 m/S 748 mmHg 40%
18:00 +28°C° 0 mm 2 m/S 747 mmHg 51%
19:00 +26°C° 0 mm 2 m/S 747 mmHg 61%
20:00 +24°C° 0 mm 1 m/S 747 mmHg 72%
21:00 +23°C° 0 mm 1 m/S 747 mmHg 72%
22:00 +23°C° 0 mm 1 m/S 747 mmHg 73%
23:00 +22°C° 0 mm 1 m/S 747 mmHg 73%

21 Juni, Montag

Zeit Temperatur Niederschläge Wind Luftdruck Luftfeuchtigkeit
00:00 +21°C° 0.1 mm 2 m/S 747 mmHg 76%
01:00 +20°C° 0.1 mm 2 m/S 748 mmHg 80%
02:00 +20°C° 0.1 mm 2 m/S 748 mmHg 83%
03:00 +20°C° 0 mm 2 m/S 748 mmHg 85%
04:00 +20°C° 0 mm 2 m/S 748 mmHg 86%
05:00 +21°C° 0 mm 2 m/S 748 mmHg 88%
06:00 +23°C° 0 mm 2 m/S 748 mmHg 79%
07:00 +25°C° 0 mm 3 m/S 748 mmHg 70%
08:00 +27°C° 0 mm 3 m/S 748 mmHg 61%
09:00 +28°C° 0 mm 3 m/S 748 mmHg 56%
10:00 +30°C° 0 mm 3 m/S 748 mmHg 51%
11:00 +31°C° 0 mm 3 m/S 748 mmHg 46%
12:00 +30°C° 0 mm 3 m/S 748 mmHg 50%
13:00 +29°C° 0 mm 2 m/S 748 mmHg 54%
14:00 +28°C° 0 mm 2 m/S 748 mmHg 58%
15:00 +28°C° 0 mm 2 m/S 748 mmHg 58%
16:00 +28°C° 0 mm 1 m/S 748 mmHg 58%
17:00 +29°C° 0 mm 1 m/S 747 mmHg 57%
18:00 +27°C° 0 mm 1 m/S 748 mmHg 63%
19:00 +26°C° 0 mm 1 m/S 748 mmHg 68%
20:00 +25°C° 0 mm 1 m/S 748 mmHg 73%
21:00 +25°C° 0 mm 1 m/S 748 mmHg 74%
22:00 +24°C° 0 mm 1 m/S 748 mmHg 75%
23:00 +21°C° 0 mm 0 m/S 748 mmHg 76%

22 Juni, Dienstag

Zeit Temperatur Niederschläge Wind Luftdruck Luftfeuchtigkeit
00:00 +21°C° 0 mm 0 m/S 748 mmHg 76%
01:00 +23°C° 0 mm 1 m/S 748 mmHg 75%
02:00 +23°C° 0 mm 1 m/S 749 mmHg 75%
03:00 +23°C° 0 mm 1 m/S 749 mmHg 76%
04:00 +22°C° 0 mm 0 m/S 749 mmHg 76%
05:00 +22°C° 0 mm 0 m/S 749 mmHg 76%
06:00 +24°C° 0 mm 0 m/S 749 mmHg 69%
07:00 +26°C° 0 mm 0 m/S 749 mmHg 62%
08:00 +27°C° 0 mm 0 m/S 749 mmHg 55%
09:00 +29°C° 0 mm 0 m/S 749 mmHg 49%
10:00 +30°C° 0 mm 0 m/S 749 mmHg 43%
11:00 +32°C° 0 mm 0 m/S 750 mmHg 38%
12:00 +32°C° 0 mm 0 m/S 749 mmHg 37%
13:00 +34°C° 0 mm 1 m/S 749 mmHg 37%
14:00 +34°C° 0 mm 1 m/S 749 mmHg 36%
15:00 +33°C° 0 mm 1 m/S 749 mmHg 38%
16:00 +33°C° 0 mm 1 m/S 749 mmHg 39%
17:00 +33°C° 0 mm 1 m/S 749 mmHg 41%
18:00 +31°C° 0 mm 1 m/S 749 mmHg 50%
19:00 +28°C° 0 mm 1 m/S 749 mmHg 59%
20:00 +26°C° 0 mm 1 m/S 749 mmHg 68%
21:00 +25°C° 0 mm 1 m/S 749 mmHg 71%
22:00 +24°C° 0 mm 1 m/S 749 mmHg 75%
23:00 +23°C° 0 mm 1 m/S 749 mmHg 78%
Mehr zeigen

Wir brauchen deine Erlaubnis

Meteoprog und unser Service Anbieter werden persönliche Daten aufbewahren, so wie Cookies, Geräte Bezeichnung oder ähnliche Technologien von deinem Gerät und Prozess, so wie Persönliche Daten Inhalte und Werbungen, genauso wie social Media und den Verkehr zu analysieren.

  • Aufbewahrung und/oder Zugang zu deiner Geräte Informationen.

    Cookies, Geräte Bezeichnung oder andere Informationen, können aufbewahrt oder Zugang zu deinem Gerät erhalten, für den Grund, der oben angegeben wird.

  • Personalisierte Werbung und Inhalte, Messungen, Einblick in das Publikum und Produkt Entwicklung.

    Werbungen und Inhalte können personalisiert werden, basierend auf ein Profil. Mehr Daten können besser personalisierte Werbungen und Inhalte hinzufügen. Werbung und Inhalte können gezeigt und gemessen werden. Einblicke über das Publikum, welche die Werbung gesehen haben und den Inhalt, können abgeleitet werden. So wie Daten können genutzt werden, um es zu verbessern oder die Benutzer Erfahrung zu verbessern das System und die Software.

Wenn du “Ich stimme zu” klickst, erlaubst du uns, die Cookies zu benutzen die Geräte Bezeichnung, den Web oder ähnliche Technologien zu benutzen. Deine Settings, können in deinem Gerät bei deinem Browser geändert werden.

Für den bestimmten Zweck, berechtigten Interessen beruhen darauf, mehr als auf den Inhalt. Du kannst mehr darüber in unseren Privaten und Cookie Politik lesen.